Regional Weather Roundup
Issued by NWS Northern Indiana

Home | Current Version | Previous Version | Graphics & Text | Print | Product List | Glossary On
Versions: 1 2 3 4 5 6 7 8 9 10 11 12 13 14 15 16 17 18 19 20 21 22 23 24 25 26 27 28 29 30 31 32 33 34 35 36 37 38 39 40 41 42 43 44 45 46 47 48 49 50
586
ASUS43 KIWX 270610
RWRIWX

KIWX WEATHER ROUNDUP
NATIONAL WEATHER SERVICE NORTHERN INDIANA
100 AM EST MON FEB 27 2017

NOTE: "FAIR" INDICATES FEW OR NO CLOUDS BELOW 12,000 FEET WITH NO
SIGNIFICANT WEATHER AND/OR OBSTRUCTIONS TO VISIBILITY.

* THESE STATIONS ARE NOT UNDER NWS QUALITY CONTROL. THEY ALSO MAY NOT
  REPORT WEATHER SUCH AS PRECIPITATION OR FOG.

INZ001>027-270700-
NORTHERN INDIANA

CITY           SKY/WX    TMP DP  RH WIND       PRES   REMARKS
GARY*          CLEAR     38  23  56 S5        30.10R
VALPARAISO     CLEAR     34  24  67 SW7       30.10S WCI  28
6HR MIN TEMP:  33; 6HR MAX TEMP:  44;

MICHIGAN CITY* MOCLDY    36  25  64 SW7       30.10R
LAPORTE*       CLEAR     32  24  70 SW9       30.10S WCI  25
6HR MIN TEMP:  32; 6HR MAX TEMP:  44;

KNOX*          PTCLDY    32   5  32 SW6       30.11R WCI  26
SOUTH BEND     CLEAR     33  22  63 SW9       30.10R WCI  25
6HR MIN TEMP:  33; 6HR MAX TEMP:  43;

GOSHEN         CLEAR     34  22  61 SW9       30.10R WCI  27
6HR MIN TEMP:  33; 6HR MAX TEMP:  42;

MONTICELLO*    CLEAR     35  21  57 S3        30.13R
6HR MIN TEMP:  34; 6HR MAX TEMP:  40;

LOGANSPORT*    CLEAR     32  27  80 S7        30.14R WCI  26
ROCHESTER*     CLEAR     37  27  65 SW6       30.13R
WARSAW*        PTCLDY    37  23  56 SW7       30.12R
ANGOLA*        PTCLDY    34  25  69 SW8       30.09R WCI  27
FORT WAYNE     MOCLDY    35  25  66 SW9       30.13R WCI  28
6HR MIN TEMP:  32; 6HR MAX TEMP:  38;

HUNTINGTON*    PTCLDY    37  23  57 SW3       30.13S
6HR MIN TEMP:  37; 6HR MAX TEMP:  39;

PERU/GRISSOM   MOCLDY    32  24  70 S7        30.12R WCI  26
6HR MIN TEMP:  32; 6HR MAX TEMP:  39;

MARION*        CLEAR     33  23  67 S7        30.14S WCI  27
6HR MIN TEMP:  -6; 6HR MAX TEMP:  89;


$$
INZ028>050-270700-
CENTRAL INDIANA

CITY           SKY/WX    TMP DP  RH WIND       PRES   REMARKS
LAFAYETTE      CLEAR     32  23  69 CALM      30.14R
6HR MIN TEMP:  31; 6HR MAX TEMP:  41;

KOKOMO*        CLEAR     35  22  58 S6        30.14R WCI  30
6HR MIN TEMP:  34; 6HR MAX TEMP:  40;

MUNCIE*        MOCLDY    39  20  46 S7        30.14R
6HR MIN TEMP:  38; 6HR MAX TEMP:  44;

INDIANAPOLIS   CLOUDY    43  18  36 SW12      30.15R
6HR MIN TEMP:  37; 6HR MAX TEMP:  43;


$$
MIZ043>046-050>051-056>058-064>065-071>073-077>080-270700-
SOUTHWEST LOWER MICHIGAN

CITY           SKY/WX    TMP DP  RH WIND       PRES   REMARKS
BATTLE CREEK   CLEAR     36  24  62 SW14      30.06R
6HR MIN TEMP:  36; 6HR MAX TEMP:  41;

BENTON HARBOR  CLEAR     39  24  55 SW13G23   30.07R
6HR MIN TEMP:  39; 6HR MAX TEMP:  44;

COLDWATER*     CLEAR     36  21  55 SW10G16   30.09R
6HR MIN TEMP:  36; 6HR MAX TEMP:  40;

HILLSDALE*     CLEAR     34  23  64 SW8       30.07R WCI  27
HOLLAND        CLEAR     39  30  70 SW20G28   30.04R
6HR MIN TEMP:  38; 6HR MAX TEMP:  41;

GRAND RAPIDS   PTCLDY    39  25  57 SW15      30.02R
6HR MIN TEMP:  38; 6HR MAX TEMP:  40; 6HR PCP: TRACE;

KALAMAZOO      CLEAR     38  22  52 SW12      30.07R
6HR MIN TEMP:  37; 6HR MAX TEMP:  42;

STURGIS*       CLEAR     32  24  70 SW6       30.09R WCI  27
6HR MIN TEMP:  32; 6HR MAX TEMP:  40;

THREE RIVERS*  FAIR      33  24  69 SW8       30.09R WCI  25
6HR MIN TEMP:  33; 6HR MAX TEMP:  41;


$$
OHZ001>008-015>018-024>025-270700-
NORTHWEST OHIO

CITY           SKY/WX    TMP DP  RH WIND       PRES   REMARKS
WAUSEON*       FAIR      34  23  64 SW9       30.11R WCI  26
DEFIANCE       PTCLDY    30  21  69 S7        30.13R WCI  23
6HR MIN TEMP:  30; 6HR MAX TEMP:  38;

FINDLAY        CLOUDY    38  22  52 S10       30.14R
6HR MIN TEMP:  34; 6HR MAX TEMP:  38;

TOLEDO EXPRESS CLEAR     35  22  58 SW7       30.12R WCI  29
6HR MIN TEMP:  35; 6HR MAX TEMP:  40;

TOLEDO METCALF CLEAR     33  23  66 SW8       30.14R WCI  26
6HR MIN TEMP:  33; 6HR MAX TEMP:  40;

LIMA           CLOUDY    38  22  52 S9        30.14S
6HR MIN TEMP:  36; 6HR MAX TEMP:  39;


$$
AND FOR LAKE MICHIGAN COASTAL AND OPEN LAKE BUOY OBSERVATIONS

STATION/POSITION TEMP    WIND        PRES    VSBY  WAVE
                 AIR SEA DIR/SP/G                  HT/PER
                 (F)     (DEG/KT/KT) (MB)    (MI)  (FT/S)
CALUMET HARBOR    38     210/ 10/ 15 1017.9R
MICHIGAN CITY     39     190/ 19/ 23   N/A
BURNS HARBOR      38     200/ 13/ 17 1019.0S
SAINT JOSEPH      39     210/ 16/ 21 1018.6

$$
&&




USA.gov is the U.S. government's official web portal to all federal, state and local government web resources and services.